Regional Weather Roundup
Issued by NWS Sioux Falls, SD

Home | Current Version | Previous Version | Text Only | Print | Product List | Glossary On
Versions: 1 2 3 4 5 6 7 8 9 10 11 12 13 14 15 16 17 18 19 20 21 22 23 24 25 26 27 28 29 30 31 32 33 34 35 36 37 38 39 40 41 42 43 44 45 46 47 48 49 50
000
ASUS43 KFSD 292302
RWRFSD

WEATHER ROUNDUP FOR SE SOUTH DAKOTA/SW MINNESOTA/NW IOWA
NATIONAL WEATHER SERVICE SIOUX FALLS SD
600 PM CDT WED JUL 29 2015

NOTE: "FAIR" INDICATES FEW OR NO CLOUDS BELOW 12,000 FEET WITH NO
SIGNIFICANT WEATHER AND OR OBSTRUCTIONS TO VISIBILITY.


SDZ038>040-050-052>070-300000-
SOUTHEAST SOUTH DAKOTA

CITY           SKY/WX    TMP DP  RH WIND       PRES   REMARKS
BROOKINGS      SUNNY     81  52  36 NW16G22   30.08S
CHAMBERLAIN    NOT AVBL
HURON          SUNNY     85  48  27 NW20G26   30.05S
MADISON        FAIR      81  50  34 NW15G21   30.08F
MITCHELL       SUNNY     86  50  28 W10G20    30.07F
SIOUX FALLS    MOSUNNY   83  52  34 W9G18     30.07F
WINNER         FAIR      87  43  21 W16       30.13F
YANKTON        SUNNY     84  54  34 W9G17     30.09S
$$

MNZ071-072-080-081-089-090-097-098-300000-
SOUTHWEST MINNESOTA

CITY           SKY/WX    TMP DP  RH WIND       PRES   REMARKS
FAIRMONT       SUNNY     82  52  34 W17       30.04S
JACKSON        SUNNY     81  52  36 W18G26    30.07S
LUVERNE        SUNNY     82  54  36 W10       30.08S
MARSHALL       SUNNY     82  52  34 NW24G33   30.04S
MONTEVIDEO     SUNNY     82  54  36 NW10G21   30.01F
PIPESTONE      SUNNY     81  52  36 NW12G17   30.08S
REDWOOD FALLS  SUNNY     82  54  37 W13G24    30.00S
TRACY          SUNNY     81  54  39 W8G21     30.05S
WINDOM         SUNNY     81  52  36 W16G26    30.05S
WORTHINGTON    SUNNY     81  55  41 W13       30.08S
$$

IAZ001>003-012>014-020>022-031-032-NEZ013-014-SDZ071-300000-
NORTHWEST IOWA

CITY           SKY/WX    TMP DP  RH WIND       PRES   REMARKS
DENISON        SUNNY     79  61  53 W8G14     30.11F
ESTHERVILLE    SUNNY     80  56  43 W16G23    30.07S
SIOUX CITY     SUNNY     84  58  40 W10       30.11S
SPENCER        SUNNY     83  54  36 W20G25    30.08F
$$

ABBREVIATIONS USED IN REMARKS
   TC - TEMPERATURE IN CELSIUS
  WCI - WIND CHILL INDEX
   HX - HEAT INDEX
  VSB - VISIBILITY



USA.gov is the U.S. government's official web portal to all federal, state and local government web resources and services.